Location: Goudex
(43.3760°N, 0.9543°E)
Time: 20:51:53
(UTC+00:00)

Cosmos 1825 - Pass Details

Date: 20 November 2019
Orbit: 504 x 508 km, 82.5° (Epoch: 11 December)

Event Time Altitude Azimuth Distance (km) Brightness Sun altitude
Rises 04:56:04 0° 180° (S) 2,590 5.8 -21.5°
Reaches altitude 10° 04:58:10 10° 178° (S) 1,711 4.9 -21.1°
Maximum altitude 05:01:53 66° 96° (E) 556 2.5 -20.4°
Drops below altitude 10° 05:05:38 10° 14° (NNE) 1,727 4.9 -19.7°
Sets 05:07:47 0° 12° (NNE) 2,617 5.8 -19.4°
